Lid_Strength_Index
1 -0 -1 -1 -1 -1 -1 -1 -1 -1 -1 -1 -1 -1 -1 -1 -1 -1 -1 -1 -1 -1 -2 -1 -1 -2 -2 -2 -2 -2 -1 -1 -1 -1 -1 -1 -1 -1 -1 -1 -1 -1 -1
-0 -0 -1 -1 -1 -1 -2 -2 -2 -1 -1 -1 -1 -1 -1 -1 -1 -1 -1 -1 -1 -1 -2 -2 -2 -2 -1 -1 -1 -1 -2 -2 -1 -2 -1 -1 -1 -1 -2 -2 -2 -1 -1
-0 -1 -1 -1 -1 -2 -1 -1 -1 -1 -1 -1 -1 -1 -1 -1 -1 -1 -1 -1 -1 -1 -2 -2 -1 -1 -1 -1 -1 -1 -1 -0 1 1 1 1 -0 -1 -2 -2 -2 -2 -2
-0 -1 -1 -1 -1 -1 -1 -1 -1 -1 -1 -1 -1 -1 -1 -1 -1 -1 -1 -1 -1 -2 -2 -1 -1 -2 -1 -1 -1 -1 -0 1 2 3 3 2 2 -1 -1 -1 -1 -1 -2
-0 -1 -1 -1 -1 -1 -1 -1 -1 -1 -2 -1 -1 -1 -1 -1 -1 -1 -1 -1 -1 -1 -1 -1 -1 -1 -1 -1 -1 -0 1 2 2 2 2 -0 -1 -1 -2 -2 -1 -1 -2
0 0 -0 -1 -1 -1 -1 -1 -1 -2 -2 -2 -1 -1 -1 -1 -1 -1 -1 -1 -1 -2 -2 -1 -0 -0 -0 -0 0 1 2 3 4 3 1 -0 -1 -1 -2 -2 -2 -2 -2
1 0 -0 -1 -1 -1 -1 -1 -1 -1 -1 -2 -2 -2 -2 -1 -2 -2 -2 -2 -2 -1 -0 -0 -0 -0 1 1 1 2 3 4 5 4 3 1 -1 -2 -2 -2 -1 -1 -1
1 1 0 -0 -1 -1 -1 -1 -2 -2 -2 -2 -2 -2 -2 -2 -2 -1 -1 -1 -1 -0 0 0 1 1 1 2 2 3 4 6 7 5 4 2 -1 -2 -2 -2 -1 -1 -1
2 2 1 -1 -0 0 -1 -1 -1 -1 -2 -2 -1 -2 -2 -2 -1 -0 -0 -0 -0 0 0 1 1 1 2 3 3 4 5 6 8 6 5 3 0 -1 -1 -1 -1 -1 -1
2 1 1 -0 -0 -1 -1 0 -0 -1 -1 -2 -2 -2 -2 -1 -1 -0 -0 -0 0 0 1 2 2 2 3 4 5 6 7 8 8 7 6 4 2 1 0 -0 -1 -1 -1
3 2 1 1 1 0 1 0 1 0 -0 -1 -1 -0 1 1 2 2 2 0 1 1 2 3 3 4 5 5 6 7 9 10 9 8 6 5 3 2 1 1 0 0 -0
3 2 2 1 2 2 2 1 1 1 0 0 0 2 4 4 4 5 3 1 1 2 3 4 5 7 9 10 10 10 10 10 10 10 8 6 4 3 2 1 1 1 0
2 2 2 2 2 3 2 3 2 2 2 2 3 4 5 6 5 5 5 5 5 6 6 7 9 10 10 10 11 11 11 11 10 10 9 6 4 3 2 2 1 1 1
4 3 2 2 3 3 3 2 2 2 3 3 4 6 7 7 7 7 7 8 8 9 10 10 10 11 11 11 11 12 11 11 11 10 10 7 5 4 3 2 2 1 1
5 4 3 3 3 3 4 3 3 3 3 4 5 7 7 9 8 8 8 10 10 11 11 11 11 12 12 12 12 12 12 12 12 11 10 7 6 4 3 2 3 2 1
6 5 3 3 3 3 3 4 3 3 4 5 6 7 9 9 9 9 10 11 11 12 12 12 12 12 12 12 13 13 12 12 12 11 11 9 7 5 4 3 3 3 3
7 6 5 4 4 4 4 4 4 4 6 6 6 7 9 9 10 10 11 12 12 12 12 12 13 13 13 13 13 13 13 12 12 12 11 11 8 5 5 4 4 3 2
8 8 7 5 5 4 4 4 4 5 6 6 7 8 9 10 10 11 11 12 12 12 12 13 13 14 13 13 13 13 13 12 12 12 12 12 11 11 10 8 6 5 5
8 8 9 7 5 5 4 5 5 6 6 6 8 8 9 10 10 11 11 12 13 13 13 13 14 14 14 14 14 13 13 12 13 13 13 12 12 13 12 10 9 8 7
9 9 9 9 7 6 6 6 7 8 7 7 8 9 10 10 11 11 12 13 13 13 13 13 13 14 14 14 15 14 13 13 13 13 13 13 13 13 13 12 12 11 9
10 10 10 11 9 7 7 9 10 9 9 10 9 9 10 10 11 11 12 13 14 14 14 14 14 14 15 15 14 14 14 14 14 13 13 14 14 14 13 13 13 12 10
10 11 11 11 11 9 8 8 9 9 9 9 10 10 10 11 12 12 13 14 14 14 15 14 14 15 15 15 14 14 15 15 14 14 14 15 15 14 14 14 13 13 12
11 11 12 11 11 10 9 10 13 13 13 12 12 12 12 12 12 13 13 14 14 14 15 14 14 14 15 15 15 13 16 15 16 15 15 14 15 14 14 14 14 13 12
11 11 12 12 12 11 11 11 11 11 12 12 11 11 12 12 12 13 13 14 14 14 14 14 15 14 14 15 15 16 16 15 15 17 16 15 15 15 15 14 14 13 12
12 12 12 12 12 11 12 11 12 12 11 12 11 12 13 13 13 13 13 14 14 14 14 15 15 15 15 14 15 16 16 16 16 16 16 16 16 15 15 14 14 13 13
13 14 13 13 13 13 12 12 12 12 13 14 13 13 13 14 14 14 14 14 14 14 15 15 15 15 15 15 15 15 16 16 17 16 17 17 17 16 15 15 14 13 14